Pompano Beach, FL

4:31 PM EDT on May 24, 2018 (GMT -0400)
Pompano Beach

Weather History for KPMP - January, 2015

Change the Weather History Date:

Tuesday, January 20, 2015

  Actual Average Record
Temperature  
Mean Temperature 72 °F -  
Max Temperature 75 °F 77 °F 86 °F (1975)
Min Temperature 68 °F 57 °F 29 °F (1977)
Cooling Degree Days 6    
Growing Degree Days 22 (Base 50)    
Moisture  
Dew Point 56 °F    
Average Humidity 58    
Maximum Humidity 73    
Minimum Humidity 51    
Precipitation  
Precipitation 0.00 in - - ()
Sea Level Pressure  
Sea Level Pressure 30.05 in    
Wind  
Wind Speed 7 mph (SE)    
Max Wind Speed 13 mph    
Max Gust Speed -    
Visibility 10 miles    
Events      
Averages and records for this station are not official NWS values.
T = Trace of Precipitation, MM = Missing Value Source: NWS Daily Summary

Daily Weather History Graph

Daily Weather History Graph

Search for Another Location

Airport or City:

Astronomy

Jan. 20, 2015 Rise Set
Actual Time 7:09 AM EST 5:54 PM EST
Civil Twilight 6:44 AM EST 6:18 PM EST
Nautical Twilight 6:16 AM EST 6:46 PM EST
Astronomical Twilight 5:48 AM EST 7:14 PM EST
Moon 6:56 AM EST (1/20) 6:21 PM EST (1/20)
Length of Visible Light 11h 34m
Length of Day
10h 45m
New Moon, 0% of the Moon is Illuminated
Jan 20
New Moon
Jan 26
First Quarter
Feb 3
Full
Feb 11
Last Quarter
Feb 18
New

Hourly Weather History & Observations

Time (EST) Temp. Dew Point Humidity Pressure Visibility Wind Dir Wind Speed Gust Speed Precip Events Conditions
12:53 AM 71.1 °F 54.0 °F 55% 30.09 in 10.0 mi ESE 5.8 mph - N/A   Scattered Clouds
1:53 AM 72.0 °F 55.0 °F 55% 30.07 in 10.0 mi ESE 6.9 mph - N/A   Mostly Cloudy
2:53 AM 71.1 °F 55.0 °F 57% 30.05 in 10.0 mi East 8.1 mph - N/A   Partly Cloudy
3:53 AM 72.0 °F 55.0 °F 55% 30.04 in 10.0 mi ESE 9.2 mph - N/A   Mostly Cloudy
4:53 AM 72.0 °F 55.0 °F 55% 30.03 in 10.0 mi ESE 9.2 mph - N/A   Mostly Cloudy
5:53 AM 72.0 °F 54.0 °F 53% 30.06 in 10.0 mi SSE 10.4 mph - N/A   Partly Cloudy
6:53 AM 71.1 °F 55.0 °F 57% 30.07 in 10.0 mi ESE 5.8 mph - N/A   Clear
7:53 AM 73.0 °F 55.0 °F 53% 30.08 in 10.0 mi ESE 9.2 mph - N/A   Partly Cloudy
8:53 AM 73.0 °F 55.9 °F 55% 30.09 in 10.0 mi ESE 9.2 mph - N/A   Partly Cloudy
9:53 AM 73.9 °F 57.9 °F 57% 30.11 in 10.0 mi ESE 10.4 mph - N/A   Scattered Clouds
10:53 AM 75.0 °F 57.9 °F 55% 30.13 in 10.0 mi South 4.6 mph - N/A   Mostly Cloudy
11:53 AM 75.9 °F 57.0 °F 52% 30.10 in 10.0 mi South 9.2 mph - N/A   Mostly Cloudy
12:53 PM 75.0 °F 57.0 °F 53% 30.06 in 10.0 mi SSE 12.7 mph - N/A   Overcast
1:53 PM 75.0 °F 57.0 °F 53% 30.03 in 10.0 mi SSE 12.7 mph - N/A   Clear
2:53 PM 73.9 °F 55.0 °F 52% 30.01 in 10.0 mi SSE 9.2 mph - N/A   Clear
3:53 PM 75.0 °F 55.9 °F 51% 30.01 in 10.0 mi SSE 10.4 mph - N/A   Clear
4:53 PM 73.9 °F 55.9 °F 53% 30.02 in 10.0 mi South 6.9 mph - N/A   Mostly Cloudy
5:53 PM 73.9 °F 55.9 °F 53% 30.01 in 10.0 mi Calm Calm - N/A   Overcast
6:53 PM 73.0 °F 57.0 °F 57% 30.02 in 10.0 mi SSW 3.5 mph - N/A   Overcast
7:53 PM 70.0 °F 57.9 °F 65% 30.02 in 10.0 mi Calm Calm - N/A   Mostly Cloudy
8:53 PM 68.0 °F 57.9 °F 70% 30.03 in 10.0 mi Calm Calm - N/A   Clear
9:53 PM 68.0 °F 59.0 °F 73% 30.04 in 10.0 mi Calm Calm - N/A   Overcast
10:53 PM 69.1 °F 59.0 °F 70% 30.03 in 10.0 mi Calm Calm - N/A   Mostly Cloudy
11:53 PM 70.0 °F 60.1 °F 71% 30.03 in 10.0 mi Calm Calm - N/A   Overcast